Wind_Speed
19 20 19 20 20 19 18 17 17 18 17 16 16 15 13 12 12 11 10 10 8 7 7 7 6 5 4 3 2 1 1 1 3 4 5 6 7 8 9 10 12 13 13 14
18 19 20 20 19 20 19 18 18 18 17 17 15 15 14 12 12 11 10 9 8 8 8 7 6 6 5 4 3 2 1 1 2 3 4 5 6 7 8 10 11 12 12 14
17 18 18 19 18 18 19 19 18 19 18 16 15 14 14 13 12 11 10 9 9 8 8 7 6 6 6 5 4 3 2 1 1 2 4 4 5 7 8 9 10 11 11 13
17 18 18 18 19 19 19 20 18 18 18 17 16 14 15 13 12 13 11 10 10 9 8 8 7 7 7 6 5 3 2 2 1 2 3 4 5 6 7 8 9 10 11 12
14 16 17 19 19 19 19 18 18 17 17 17 16 15 15 14 13 13 12 11 10 9 9 9 8 8 7 7 6 5 3 3 2 2 2 2 3 5 6 7 8 9 10 11
14 16 17 18 18 18 17 17 18 17 16 16 16 17 17 15 14 13 12 11 11 10 10 10 9 8 8 8 7 6 5 4 3 2 1 1 2 4 5 6 7 8 9 11
12 14 15 17 16 16 16 16 17 17 17 17 16 17 17 16 15 13 12 12 12 11 11 10 9 8 8 8 7 6 6 5 4 2 1 0 1 3 4 5 6 7 9 10
11 12 14 16 17 16 16 16 15 15 16 15 16 17 18 16 15 15 13 12 12 12 11 10 10 9 9 9 8 8 7 6 5 4 3 2 1 2 3 4 5 6 7 9
9 11 13 15 16 17 16 16 13 13 13 12 14 14 15 16 16 15 14 13 13 13 12 11 11 10 10 10 9 8 8 7 6 5 4 3 2 2 3 4 4 5 6 8
8 9 11 14 14 14 15 15 15 14 13 13 12 12 12 14 14 14 14 14 14 14 13 12 12 11 11 11 10 10 9 8 7 6 5 4 3 3 3 3 4 5 6 7
9 9 10 12 13 14 15 15 15 15 14 12 12 13 13 14 14 14 14 14 13 14 14 13 13 13 12 12 11 11 10 9 8 7 6 5 5 4 4 4 4 5 6 7
9 8 8 10 12 13 15 15 15 16 16 15 13 12 12 12 13 13 14 14 13 13 14 14 14 14 14 13 12 11 11 10 9 9 8 7 6 5 5 5 5 6 6 7
10 9 8 9 10 12 13 15 16 16 15 14 13 12 12 13 14 14 14 14 14 14 14 15 15 15 15 14 13 12 12 11 11 10 10 9 8 7 7 7 7 7 7 8
10 10 10 9 8 11 12 15 15 16 15 13 13 13 13 13 14 15 15 15 15 15 15 15 15 15 15 15 14 14 13 12 12 11 11 10 10 9 9 9 9 9 9 10
11 10 10 10 9 10 12 14 15 15 16 15 14 14 14 14 15 16 15 16 16 15 15 15 15 16 15 15 15 14 14 13 13 13 12 12 12 12 11 11 11 11 11 12
10 10 10 9 10 10 11 13 14 15 16 17 16 15 14 14 15 16 16 16 17 16 16 16 16 16 16 16 16 15 15 14 14 14 14 14 14 14 13 13 13 13 13 14
10 10 9 8 9 10 11 11 13 15 16 16 17 16 16 16 16 16 17 17 17 18 17 17 17 17 17 17 17 16 16 16 16 15 16 15 15 15 15 15 15 15 15 16
12 11 10 9 10 11 10 11 12 13 15 16 16 17 18 18 17 17 17 16 17 18 18 18 18 18 18 18 18 18 17 17 17 17 17 17 17 17 16 17 17 17 17 17
13 13 12 11 11 10 10 11 11 12 14 15 16 17 18 18 18 18 18 18 18 18 19 19 19 19 19 19 19 19 19 19 19 19 19 19 19 19 19 19 19 19 19 19
14 14 13 12 12 11 11 11 12 12 14 15 16 17 17 18 18 18 18 18 18 19 20 19 19 19 19 19 19 19 20 20 20 20 21 21 21 21 21 21 21 21 21 21
16 16 15 14 14 13 13 13 13 15 16 16 16 17 18 18 18 18 18 19 19 20 20 20 20 20 20 21 21 21 21 21 22 23 23 23 23 23 23 23 23 23 23 24
17 17 16 16 16 16 16 15 15 16 16 17 17 18 18 18 19 19 19 20 20 21 21 21 21 22 22 23 23 22 22 23 23 24 24 24 24 24 24 24 25 25 25 26
20 19 18 18 19 19 19 18 17 18 18 18 18 19 20 20 20 20 20 20 21 21 21 22 22 23 24 23 23 23 24 24 24 25 25 25 25 25 25 26 26 27 27 28
21 21 22 22 22 23 22 21 21 21 21 21 20 20 21 21 21 21 21 21 22 22 22 23 23 23 23 23 23 24 25 26 26 26 26 26 26 27 27 28 29 29 30 30
24 24 24 23 23 24 24 24 23 22 23 23 23 22 22 22 22 22 22 23 23 23 23 23 23 23 23 24 25 26 26 27 27 27 28 28 28 29 29 30 31 31 32 33
27 27 27 27 26 27 26 24 24 23 24 24 24 24 24 23 23 24 24 24 24 25 25 24 24 25 25 26 26 27 27 28 29 29 29 30 31 31 31 32 32 33 35 35
Wind_Direction
207 206 206 209 210 209 214 216 217 218 215 218 219 217 219 214 216 216 215 208 204 208 204 201 195 197 202 194 179 168 150 95 61 50 45 41 42 40 39 38 36 35 33 34
207 206 206 206 206 207 212 218 219 218 217 216 221 220 217 214 214 212 212 208 205 204 204 205 203 204 206 198 192 185 160 116 74 63 55 49 47 43 42 39 37 37 36 34
205 205 206 206 205 205 210 216 220 216 213 216 218 218 216 214 217 215 212 213 209 207 209 209 208 207 204 202 200 189 169 147 88 77 63 56 49 44 41 37 36 35 35 34
206 207 205 204 205 204 211 215 216 213 214 217 215 222 219 216 218 216 216 218 218 216 215 216 215 210 208 207 204 196 182 171 135 100 73 62 49 39 35 34 34 35 34 33
205 205 205 205 207 208 212 217 216 215 218 216 214 227 226 224 226 221 219 222 223 220 218 220 220 215 214 212 208 206 198 193 173 136 86 62 42 32 32 32 32 32 31 30
207 207 207 208 207 210 214 219 219 219 220 220 219 226 229 227 230 227 222 225 224 221 218 220 220 217 218 215 212 210 204 202 193 180 134 50 33 27 30 31 31 29 28 26
208 210 210 210 209 211 213 214 218 220 221 225 223 225 228 225 230 230 226 227 226 225 221 218 217 218 219 217 214 213 206 206 211 215 232 291 17 27 29 27 25 24 22 22
210 215 214 214 214 212 210 212 218 219 221 226 227 229 229 228 231 233 231 230 229 228 223 219 219 218 217 216 214 214 214 217 221 225 238 254 311 2 12 12 13 14 15 17
210 220 217 217 216 215 213 210 209 214 216 222 228 233 230 234 233 232 231 233 231 231 227 224 223 219 219 218 216 217 220 224 226 228 237 252 271 306 342 354 0 4 7 10
214 223 220 216 216 217 215 212 209 208 212 219 224 233 238 245 238 231 233 234 232 228 227 226 225 222 221 222 221 221 222 224 226 230 236 249 262 286 316 337 344 350 353 359
212 216 224 221 218 216 215 215 214 212 214 218 219 226 237 244 240 233 234 231 229 230 229 228 227 224 223 224 224 224 224 227 230 234 241 250 260 274 294 311 325 336 341 346
212 211 215 219 221 221 217 215 215 216 215 220 229 231 234 239 238 234 232 232 232 232 231 229 228 228 228 226 228 228 228 231 234 239 245 251 258 268 282 295 307 318 324 331
208 207 208 221 224 224 221 216 218 217 216 217 229 233 235 241 239 235 232 232 233 233 232 231 230 231 231 230 232 233 232 235 239 243 248 252 257 265 275 287 296 303 310 318
218 216 214 220 233 230 223 219 219 217 217 217 225 233 236 242 243 242 238 237 234 235 232 232 232 234 235 236 237 238 237 239 242 246 250 254 259 264 272 281 289 294 299 308
226 225 223 228 236 233 229 223 221 219 219 220 222 226 231 236 240 242 239 236 234 234 234 233 234 236 238 239 240 242 241 242 245 249 253 257 261 266 272 278 283 289 293 301
224 222 223 230 234 233 232 228 225 222 222 223 225 230 239 242 241 240 238 238 234 234 236 235 236 238 240 241 243 247 245 245 248 253 256 260 263 266 270 275 280 285 289 295
225 221 220 223 230 235 235 231 229 228 229 230 228 230 236 238 241 242 240 239 239 237 237 237 238 240 244 246 247 250 249 249 252 256 259 261 264 266 270 274 279 283 287 291
229 229 228 230 231 234 232 233 235 234 232 232 233 235 238 240 244 244 244 242 242 243 243 242 242 244 245 247 250 251 251 253 256 258 261 263 265 268 271 275 278 282 286 289
230 235 235 236 236 234 237 239 240 238 235 235 237 237 240 244 247 247 245 244 246 246 244 244 245 247 247 249 250 251 251 254 257 259 261 264 266 269 272 275 279 281 285 288
239 242 242 240 238 235 237 240 243 244 240 238 238 240 243 246 250 251 249 249 248 248 247 245 246 247 249 250 251 252 253 255 257 259 262 265 267 269 271 274 277 280 283 287
245 245 246 245 244 244 244 242 242 243 244 240 241 243 247 252 254 254 253 252 251 251 249 247 248 249 251 252 253 254 254 257 259 261 264 266 268 270 272 274 277 280 283 286
249 248 248 246 246 245 248 248 246 247 249 247 247 249 252 254 255 253 254 253 252 252 250 250 250 252 252 254 256 257 258 259 261 263 265 266 268 270 272 275 278 281 284 287
248 251 251 248 249 250 252 252 252 254 256 254 254 254 253 254 254 256 256 254 252 250 252 253 253 253 255 257 259 261 262 261 262 264 265 267 268 271 274 277 280 282 285 287
244 249 248 249 250 254 255 257 256 256 257 257 258 259 256 255 255 255 255 256 254 252 252 252 253 255 256 258 260 262 263 263 263 265 266 268 270 272 275 278 281 283 285 287
243 247 250 253 255 256 256 257 256 256 258 258 258 259 259 257 256 257 259 259 257 254 251 253 255 257 260 261 262 264 265 265 265 266 268 269 271 274 276 279 281 283 285 287
245 249 251 252 254 256 258 258 260 258 257 258 259 260 260 260 259 257 259 260 258 255 255 256 259 261 262 263 264 265 266 266 267 268 269 271 273 275 277 279 281 284 286 288
Height
5827 5832 5835 5838 5843 5846 5849 5852 5855 5858 5860 5863 5865 5868 5870 5872 5875 5877 5879 5881 5883 5884 5886 5887 5888 5889 5890 5891 5891 5892 5892 5892 5892 5891 5891 5890 5889 5888 5887 5885 5884 5882 5880 5878
5827 5829 5833 5836 5840 5844 5848 5851 5853 5856 5859 5861 5863 5866 5869 5871 5874 5876 5878 5880 5881 5883 5885 5886 5888 5889 5890 5890 5891 5892 5892 5892 5892 5892 5891 5891 5890 5889 5888 5887 5885 5884 5882 5880
5825 5828 5831 5835 5839 5843 5846 5849 5851 5854 5857 5860 5862 5864 5867 5870 5872 5875 5877 5879 5881 5882 5884 5885 5887 5888 5889 5890 5891 5892 5892 5892 5892 5892 5892 5891 5891 5890 5889 5888 5887 5885 5884 5882
5823 5827 5830 5834 5837 5841 5844 5847 5850 5852 5855 5858 5861 5863 5865 5868 5871 5873 5876 5878 5880 5881 5883 5884 5886 5887 5888 5889 5890 5891 5892 5892 5892 5892 5892 5892 5892 5891 5890 5889 5888 5887 5885 5883
5823 5826 5829 5833 5836 5840 5842 5845 5848 5850 5853 5856 5859 5862 5865 5866 5869 5872 5874 5877 5878 5880 5882 5883 5885 5886 5887 5889 5890 5891 5891 5892 5892 5892 5892 5892 5892 5892 5891 5890 5889 5888 5886 5885
5823 5825 5828 5831 5835 5838 5841 5844 5847 5849 5852 5855 5858 5861 5863 5865 5868 5871 5873 5875 5877 5879 5881 5882 5884 5885 5887 5888 5889 5890 5891 5892 5892 5892 5892 5892 5892 5892 5891 5891 5890 5889 5888 5886
5823 5825 5828 5831 5834 5837 5840 5844 5846 5848 5850 5854 5856 5858 5861 5864 5866 5869 5871 5873 5875 5877 5879 5881 5883 5884 5885 5887 5888 5889 5890 5891 5892 5892 5892 5893 5892 5892 5892 5891 5890 5890 5888 5887
5822 5825 5827 5830 5833 5836 5838 5842 5846 5848 5850 5852 5854 5856 5860 5862 5865 5867 5869 5871 5874 5875 5877 5879 5881 5883 5884 5886 5887 5888 5889 5890 5891 5892 5892 5892 5893 5892 5892 5891 5891 5890 5889 5888
5822 5825 5827 5829 5831 5834 5837 5840 5843 5846 5848 5850 5852 5855 5858 5860 5863 5865 5868 5870 5871 5873 5875 5877 5879 5881 5883 5884 5886 5887 5889 5889 5890 5891 5892 5892 5892 5892 5892 5891 5891 5890 5889 5888
5822 5824 5826 5828 5830 5833 5836 5838 5841 5844 5847 5849 5852 5854 5856 5858 5860 5863 5865 5867 5869 5871 5873 5875 5877 5879 5881 5883 5884 5886 5887 5888 5889 5890 5891 5891 5892 5892 5891 5891 5891 5890 5889 5888
5821 5823 5826 5827 5829 5832 5835 5838 5840 5842 5845 5848 5850 5854 5854 5856 5858 5861 5863 5865 5867 5869 5871 5873 5876 5877 5879 5881 5883 5884 5885 5887 5888 5889 5890 5890 5891 5891 5891 5891 5890 5890 5889 5888
5821 5822 5824 5826 5828 5830 5833 5835 5838 5841 5844 5846 5848 5853 5852 5854 5856 5858 5860 5863 5865 5867 5869 5871 5873 5875 5877 5879 5881 5882 5884 5885 5886 5887 5888 5889 5889 5890 5890 5890 5889 5889 5888 5887
5821 5822 5824 5826 5829 5830 5831 5833 5836 5838 5841 5843 5846 5850 5850 5852 5854 5856 5858 5860 5863 5865 5867 5869 5871 5873 5875 5877 5879 5880 5881 5883 5884 5885 5886 5887 5887 5888 5888 5888 5888 5887 5887 5886
5820 5822 5824 5826 5826 5827 5830 5832 5834 5837 5839 5841 5844 5847 5848 5849 5851 5854 5856 5858 5860 5862 5864 5866 5868 5870 5872 5874 5876 5877 5879 5880 5881 5882 5884 5885 5885 5886 5886 5886 5886 5885 5885 5884
5819 5820 5822 5823 5824 5826 5828 5830 5832 5835 5837 5839 5842 5844 5846 5847 5849 5851 5853 5855 5857 5859 5861 5863 5865 5867 5869 5871 5873 5874 5876 5877 5879 5880 5881 5882 5883 5883 5883 5883 5883 5883 5882 5882
5817 5819 5820 5822 5823 5824 5826 5828 5830 5832 5835 5837 5839 5841 5843 5844 5845 5847 5850 5851 5853 5855 5858 5860 5862 5864 5866 5868 5870 5871 5873 5874 5876 5877 5878 5879 5879 5880 5880 5880 5880 5880 5879 5879
5815 5817 5819 5820 5821 5822 5824 5826 5827 5830 5832 5834 5836 5839 5839 5841 5843 5845 5846 5848 5849 5852 5854 5856 5859 5861 5863 5864 5866 5868 5869 5871 5872 5873 5874 5875 5876 5876 5876 5877 5877 5876 5876 5875
5813 5815 5816 5818 5820 5821 5824 5824 5825 5827 5829 5831 5833 5835 5836 5838 5840 5841 5843 5845 5847 5849 5851 5853 5855 5857 5859 5860 5862 5864 5865 5867 5868 5869 5870 5871 5871 5872 5872 5872 5872 5872 5871 5871
5811 5813 5814 5815 5817 5818 5820 5821 5822 5824 5826 5828 5829 5831 5833 5834 5836 5838 5839 5841 5843 5845 5847 5849 5851 5853 5854 5856 5858 5859 5861 5862 5863 5865 5865 5866 5867 5867 5867 5867 5867 5867 5866 5866
5809 5810 5812 5813 5814 5816 5818 5819 5820 5822 5823 5824 5825 5827 5829 5831 5832 5834 5836 5837 5838 5840 5842 5844 5846 5848 5850 5851 5853 5854 5856 5857 5858 5859 5860 5861 5861 5862 5862 5862 5862 5861 5861 5860
5806 5807 5809 5810 5811 5813 5814 5815 5818 5820 5820 5821 5822 5823 5825 5826 5828 5830 5831 5832 5834 5836 5838 5840 5841 5843 5845 5846 5847 5849 5850 5852 5853 5853 5854 5855 5855 5856 5856 5856 5856 5855 5855 5854
5802 5803 5805 5807 5808 5811 5811 5812 5814 5815 5815 5816 5818 5819 5821 5822 5824 5825 5826 5828 5829 5831 5833 5834 5836 5838 5839 5841 5842 5843 5845 5846 5847 5847 5848 5849 5849 5849 5849 5849 5849 5848 5848 5847
5798 5800 5801 5803 5806 5806 5806 5808 5809 5810 5811 5812 5814 5815 5816 5818 5819 5820 5821 5823 5824 5826 5827 5829 5831 5832 5833 5835 5836 5837 5838 5839 5840 5840 5841 5842 5842 5842 5842 5842 5842 5841 5840 5839
5793 5794 5796 5798 5799 5800 5801 5803 5804 5806 5807 5808 5809 5810 5811 5813 5814 5815 5817 5818 5819 5820 5821 5823 5824 5826 5827 5828 5829 5830 5831 5832 5833 5833 5834 5834 5835 5835 5835 5834 5834 5833 5832 5831
5787 5789 5790 5792 5794 5794 5796 5797 5798 5800 5802 5803 5804 5805 5806 5807 5809 5810 5811 5812 5813 5814 5815 5817 5818 5819 5820 5821 5822 5823 5824 5825 5825 5826 5826 5827 5827 5827 5827 5826 5825 5825 5824 5822
5781 5783 5784 5786 5787 5788 5789 5790 5792 5794 5795 5796 5798 5799 5800 5801 5802 5803 5805 5806 5807 5808 5809 5810 5811 5812 5813 5814 5815 5815 5816 5817 5818 5818 5818 5819 5818 5818 5818 5817 5817 5815 5814 5812